Wind_Speed
122 118 111 100 92 86 79 72 65 61 56 52 48 45 42 41 39 39 39 37 39 39 32 43 38 38 39 41 43 45 49 53 60 65 73 87 86 97 105 107 110 105 101 88 80 78 72 65 63 61 61 57 53 52
117 104 96 88 81 73 65 59 57 51 45 40 37 35 33 32 31 31 32 31 31 29 34 32 33 33 34 35 37 42 46 45 52 61 68 63 69 82 87 96 91 94 93 84 76 62 62 59 50 60 60 59 61 57
103 93 86 76 67 61 55 51 48 41 35 32 29 27 26 24 22 21 21 21 22 24 23 24 26 26 27 30 34 38 39 42 48 56 64 54 66 80 82 88 91 90 86 79 73 64 61 56 59 55 59 58 60 55
93 84 75 66 59 52 49 44 38 33 29 26 25 24 22 20 17 14 12 12 14 16 17 17 18 20 21 26 30 32 36 41 47 51 53 53 60 67 75 77 82 80 71 65 59 58 56 54 57 58 63 60 56 53
85 76 66 59 54 49 44 39 34 30 28 26 24 21 20 16 11 7 4 6 8 10 12 14 15 18 21 25 26 31 35 39 44 47 49 56 60 67 72 71 72 72 67 63 59 55 55 55 58 63 63 62 59 58
78 68 59 55 52 47 40 35 32 30 27 24 20 17 15 12 9 6 6 3 4 7 12 16 19 20 23 27 30 33 38 41 46 49 56 61 66 73 72 68 72 68 65 62 58 53 45 45 50 57 61 60 58 56
70 61 55 52 50 43 36 30 28 27 25 22 18 15 14 12 11 10 11 11 12 14 16 18 22 25 26 29 32 37 41 42 45 49 55 61 67 70 68 62 66 67 61 63 57 45 47 62 70 66 46 40 52 54
63 55 51 50 46 39 32 28 27 25 23 21 19 17 15 15 13 13 15 16 16 19 19 23 25 26 30 34 36 38 42 44 49 54 64 70 74 73 67 59 63 67 54 55 45 53 59 53 61 51 48 44 47 47
60 53 49 46 41 34 29 27 24 24 23 23 22 20 18 18 16 17 18 18 18 20 24 30 31 33 35 38 41 44 45 49 53 58 63 66 71 68 67 58 51 59 65 65 63 52 56 61 61 55 46 49 39 38
56 49 45 42 36 31 26 25 24 23 23 23 22 19 19 19 20 21 23 26 24 24 27 34 37 38 39 42 45 47 51 59 62 62 62 71 69 71 72 69 58 72 73 76 74 68 58 57 55 45 52 37 31 30
52 47 42 38 31 28 25 25 22 19 19 20 23 21 22 22 22 25 29 32 35 40 42 47 45 42 41 42 44 47 53 58 63 56 47 62 70 74 69 75 64 66 73 70 72 69 57 55 53 54 51 42 39 37
50 45 40 32 28 26 21 23 22 20 19 19 21 23 23 23 22 29 36 39 43 50 54 57 51 47 46 47 51 53 54 57 56 59 51 63 67 74 74 73 78 69 71 75 73 71 60 59 52 51 44 44 45 41
46 41 35 30 26 22 21 22 21 19 18 19 20 25 26 26 32 36 43 47 53 56 56 58 60 57 53 55 56 58 53 54 62 58 56 54 59 75 73 79 83 81 81 77 73 71 67 63 62 63 60 49 47 46
42 38 32 29 21 19 19 18 20 18 18 18 19 24 23 27 33 45 46 52 54 59 61 61 57 57 56 58 60 56 49 57 62 56 56 56 53 52 60 65 71 72 77 76 78 77 74 74 70 65 62 51 54 56
39 36 31 24 20 19 17 18 18 18 17 20 22 19 15 19 28 38 47 56 58 58 56 57 61 62 60 63 63 55 42 57 56 51 52 56 50 53 53 53 54 60 68 71 72 72 72 67 56 48 53 52 53 55
37 33 28 23 21 18 17 17 17 16 17 19 21 19 15 16 26 36 43 51 59 59 57 62 62 57 61 64 50 50 43 51 53 48 48 50 51 52 52 53 55 57 55 55 60 62 63 60 58 52 46 50 57 59
34 31 27 24 22 19 16 16 17 17 16 15 17 19 22 21 21 28 42 49 53 57 58 60 59 60 61 57 52 50 46 43 48 49 43 43 45 42 43 50 56 53 51 50 49 52 52 54 54 55 58 56 58 59
32 31 28 25 23 20 17 17 17 19 19 17 15 16 18 21 25 30 46 53 55 56 57 61 57 51 63 60 55 47 45 46 44 47 50 53 54 48 40 41 44 44 50 54 56 49 45 48 51 58 64 65 64 66
32 32 30 27 26 23 19 20 19 21 21 20 18 15 16 20 22 28 39 53 54 55 53 56 56 51 51 60 60 56 51 52 51 49 49 48 53 57 54 54 54 55 56 55 51 51 53 50 52 54 62 73 73 72
33 33 31 30 30 27 24 22 21 22 21 20 20 19 16 17 22 25 32 49 46 52 53 53 53 51 54 55 58 62 62 60 57 57 58 57 54 56 50 46 47 53 58 57 59 60 62 57 56 62 62 64 70 76
36 35 33 33 32 30 28 26 23 20 21 18 17 18 19 15 15 19 27 49 45 49 45 44 44 52 53 51 51 58 57 57 54 52 55 62 59 55 58 59 60 59 64 64 67 68 70 70 67 69 69 71 74 75
31 33 35 35 35 32 28 24 20 19 19 19 18 15 16 17 17 18 21 24 47 51 45 48 45 47 52 50 53 50 51 50 49 46 48 48 48 50 53 56 55 56 53 61 69 70 67 67 67 73 81 86 86 86
26 25 28 31 33 31 30 29 25 21 18 16 14 12 10 9 10 11 12 17 21 30 43 49 50 47 51 51 53 55 55 54 55 62 59 57 58 62 66 66 66 63 62 64 63 65 73 77 82 81 78 84 90 94
20 21 25 26 24 23 23 22 22 22 22 18 14 11 8 5 2 2 5 9 13 16 19 23 27 35 44 46 48 54 58 60 60 61 67 70 69 68 71 74 72 70 74 76 74 77 80 79 78 78 77 78 77 80
21 21 21 21 19 19 18 15 15 15 14 13 11 9 8 4 1 3 7 11 14 16 19 21 24 28 31 33 36 39 42 45 48 50 53 55 56 60 62 65 67 67 73 73 72 72 74 77 77 76 78 78 80 80
20 21 23 23 23 22 19 19 18 17 13 12 10 10 12 12 11 11 12 13 14 16 19 21 24 28 31 35 37 41 43 46 49 51 53 55 55 61 64 65 66 68 71 71 75 78 77 77 77 78 79 79 80 81
23 24 24 28 27 26 25 23 21 20 21 21 20 18 15 15 16 16 16 17 18 20 21 23 26 28 31 33 34 38 40 41 44 46 47 47 50 54 60 59 57 61 62 62 65 67 68 71 74 74 74 74 75 75
30 29 28 29 29 27 25 23 22 23 23 24 25 25 24 24 24 24 24 24 22 22 23 24 26 27 30 32 33 36 39 39 41 43 41 40 42 46 51 54 55 56 55 53 57 59 60 63 65 66 68 69 71 71
29 38 41 37 29 28 27 26 26 27 28 28 28 29 29 29 29 29 28 26 25 23 24 27 30 31 31 32 32 33 38 40 39 40 40 41 41 42 43 45 47 48 50 51 51 53 56 59 59 60 61 63 64 66
27 12 11 27 30 29 28 28 28 29 30 33 35 36 37 36 34 32 31 29 29 30 31 34 38 40 37 34 32 31 33 33 33 35 36 39 41 41 40 39 39 40 41 42 43 43 44 47 49 51 53 53 54 54
31 31 32 34 37 40 39 37 35 35 36 37 40 41 40 37 34 34 33 30 29 30 34 36 33 31 30 29 28 28 29 30 30 31 32 33 35 35 36 36 36 35 36 36 37 38 39 40 40 41 42 43 44 43
31 33 35 37 39 40 42 42 39 39 38 37 38 39 40 39 37 33 30 29 30 33 37 36 33 31 29 27 27 26 27 27 26 26 27 28 29 29 29 30 30 31 32 33 34 35 36 37 37 37 37 38 38 38
35 35 35 36 39 40 41 42 42 41 40 39 38 39 40 40 41 40 35 33 33 34 38 38 36 33 30 28 28 28 27 26 27 27 27 26 27 29 29 29 29 29 30 31 32 32 33 33 33 33 33 32 32 32
Wind_Direction
312 312 313 313 314 313 311 309 308 307 304 301 298 295 291 287 281 276 272 267 263 262 259 254 252 248 241 237 231 226 225 225 220 219 222 228 226 230 232 234 235 237 242 242 244 246 251 246 249 254 256 259 258 253
319 318 318 319 317 315 314 315 316 312 309 306 303 302 298 294 288 281 274 267 261 256 248 251 249 245 239 233 225 225 219 216 215 212 216 215 213 220 222 222 223 230 235 236 241 237 234 235 251 248 246 252 255 252
323 323 323 321 321 320 323 323 322 321 317 312 310 309 306 302 297 288 274 264 255 250 247 242 240 237 230 222 217 212 210 206 207 208 212 206 208 211 212 212 217 220 227 235 237 236 232 237 240 251 247 248 253 257
328 328 327 327 327 330 329 329 328 329 328 326 325 324 321 315 305 292 279 261 249 244 239 232 228 225 218 210 208 203 200 198 198 197 202 203 202 202 207 205 207 213 216 224 226 228 234 237 244 246 247 251 253 256
332 330 332 333 336 337 336 335 336 339 342 341 340 339 342 344 343 328 285 250 230 217 212 205 202 199 194 188 194 193 189 188 188 188 191 191 189 192 190 195 200 206 208 213 217 226 228 233 239 247 251 251 251 255
334 335 337 341 344 342 340 342 347 351 353 351 351 354 5 18 28 42 62 104 149 172 173 170 170 173 179 175 175 177 176 177 179 181 179 180 181 178 184 192 197 200 205 209 216 218 229 245 248 250 251 253 257 257
337 340 343 346 348 345 346 352 357 2 4 7 11 18 25 34 53 78 94 104 125 134 145 152 157 158 158 160 162 165 165 168 170 172 175 174 172 173 182 187 195 200 203 209 214 224 218 222 231 250 246 252 250 250
342 344 348 350 350 349 354 1 10 12 16 21 28 38 47 53 62 89 98 108 117 126 131 133 136 142 148 150 154 159 160 163 165 170 174 172 170 177 174 185 195 193 192 194 195 199 215 217 222 237 244 250 253 249
346 348 351 352 352 354 2 12 17 25 30 35 39 46 57 64 68 88 98 105 116 125 130 129 126 134 140 141 148 153 155 160 165 171 178 176 170 177 175 175 183 191 198 197 196 201 206 215 219 229 241 250 245 252
348 351 353 354 355 359 9 17 25 34 45 49 52 63 69 77 84 87 97 99 97 109 112 121 124 128 134 138 143 148 153 159 164 171 177 176 177 172 173 174 179 180 188 194 198 210 216 214 219 223 230 239 244 258
350 352 355 356 2 8 18 24 28 40 54 64 72 75 83 94 100 104 107 108 113 113 117 117 118 124 127 132 137 147 156 161 166 162 167 169 170 177 183 182 181 189 194 199 204 217 221 225 230 235 238 241 245 254
351 354 355 1 8 10 28 37 34 39 56 69 78 90 94 100 102 112 111 115 118 116 120 118 120 123 127 134 141 146 151 155 154 152 166 169 180 185 189 189 191 195 201 204 207 213 221 226 235 245 244 249 256 228
353 356 356 2 10 17 32 44 44 47 63 76 90 95 101 112 116 121 120 122 124 124 128 129 135 138 142 144 148 147 153 156 155 165 172 177 189 188 192 194 200 202 203 209 217 217 224 234 237 244 247 242 236 220
354 357 360 6 13 28 39 46 54 55 70 86 97 108 125 130 132 131 131 134 134 135 139 140 146 146 143 146 147 146 148 163 167 175 178 185 190 194 198 200 205 212 214 216 221 224 230 234 239 242 248 237 226 223
357 360 6 9 23 30 40 50 61 64 73 93 103 116 124 132 134 140 139 142 142 147 149 148 149 147 151 152 149 151 159 170 177 181 187 190 192 193 199 204 209 215 215 219 224 228 230 232 231 228 223 224 228 231
2 5 10 17 25 32 45 57 59 69 83 99 109 121 119 134 144 148 151 152 152 153 152 150 155 157 156 155 157 166 170 178 179 180 186 194 202 205 207 210 215 219 221 219 218 225 230 230 229 221 219 225 228 232
8 11 17 24 30 37 41 57 69 66 65 90 107 129 144 144 154 154 157 155 154 160 160 160 162 167 161 163 160 171 178 186 193 197 199 205 207 209 215 221 219 223 224 225 224 225 227 227 225 221 226 226 231 232
16 22 27 31 33 40 50 56 73 83 87 88 95 111 128 151 160 163 165 162 162 165 165 164 166 171 174 172 170 179 188 191 195 202 208 210 209 212 210 219 222 215 219 223 226 234 231 230 233 230 227 230 229 234
25 31 35 36 36 44 56 67 78 82 86 91 93 99 122 138 159 176 175 172 172 175 172 170 173 177 180 182 187 192 198 199 204 210 212 215 219 221 222 222 224 219 224 232 232 231 238 237 235 234 232 230 233 233
32 36 38 43 46 47 55 69 75 77 81 86 96 103 114 128 149 171 188 184 184 183 180 180 183 187 189 188 196 200 205 208 212 214 217 222 223 217 218 224 229 228 231 230 230 231 232 230 234 238 238 238 238 241
36 41 44 46 47 50 53 57 68 70 69 73 88 99 103 116 134 156 179 192 191 193 195 197 197 197 198 201 204 209 214 219 226 226 232 233 233 238 237 232 230 231 231 236 234 234 234 236 239 237 236 241 245 244
31 41 46 49 51 49 51 51 55 61 66 66 73 86 104 115 124 138 152 183 203 202 209 204 202 206 211 214 215 218 225 229 236 241 241 243 243 241 241 240 241 241 247 245 243 246 249 248 248 247 247 248 248 247
20 24 39 44 47 47 48 51 50 52 55 54 55 68 89 111 126 138 153 166 181 206 217 215 212 216 220 219 220 220 224 226 231 241 240 240 242 242 246 246 248 251 253 257 255 250 250 252 253 254 252 252 250 250
19 23 34 38 34 35 39 42 49 52 54 52 48 51 50 45 28 204 211 219 217 212 211 212 215 222 229 233 238 240 242 246 251 250 248 251 253 254 254 251 249 252 257 256 253 254 255 258 258 259 260 261 259 258
13 19 27 28 25 22 25 37 41 35 31 30 27 26 32 45 52 234 241 244 250 251 249 246 244 241 238 238 241 246 247 248 249 249 250 251 252 253 254 254 255 255 258 262 262 260 261 263 265 264 264 264 265 265
9 15 21 17 12 12 11 7 3 1 2 357 343 331 329 321 320 313 305 297 287 280 273 267 260 258 256 255 255 257 258 258 259 258 258 258 258 261 262 260 260 260 261 262 263 265 267 267 267 266 266 267 268 268
16 22 28 27 23 22 22 19 17 13 8 4 360 353 343 334 329 324 315 308 302 295 288 282 277 272 270 269 269 269 270 270 270 271 270 268 266 266 268 269 268 268 268 268 268 268 268 269 270 271 271 270 270 270
31 21 22 22 18 17 16 14 12 10 4 359 357 355 351 345 341 335 329 322 315 310 304 300 294 289 285 282 280 280 280 279 278 279 279 278 275 273 271 271 271 271 271 271 271 271 270 270 269 270 271 271 271 271
52 13 347 353 4 10 12 13 13 12 10 7 4 359 354 349 344 341 339 336 332 329 326 321 317 312 306 303 300 296 290 291 292 289 288 288 287 285 283 281 279 277 276 276 275 275 275 275 276 274 273 273 273 272
61 91 360 15 14 12 11 9 8 8 7 7 3 360 357 353 347 346 346 342 334 331 330 325 321 319 316 313 310 305 299 298 296 294 294 296 298 298 297 294 290 287 286 284 283 281 279 279 279 279 279 279 278 278
31 29 26 22 19 18 15 9 6 4 5 5 2 358 356 355 349 340 337 337 334 329 326 326 327 325 322 319 317 313 310 308 306 303 301 300 301 303 303 302 301 299 298 296 294 293 292 291 289 288 287 287 286 285
25 21 18 17 15 14 12 8 5 3 360 356 353 352 350 350 352 348 343 340 338 338 340 345 344 339 334 329 327 327 325 322 318 314 309 306 305 304 304 304 303 302 302 301 299 298 296 295 293 292 292 292 292 292
18 15 13 12 10 9 8 7 5 0 359 355 351 351 353 351 354 354 352 349 348 348 349 349 348 346 344 340 337 336 335 334 331 327 324 320 318 316 315 313 310 309 308 308 307 306 306 305 304 303 302 301 301 300
Height
10522 10490 10460 10434 10412 10394 10378 10364 10350 10338 10327 10318 10311 10305 10299 10296 10295 10293 10292 10295 10294 10296 10305 10298 10308 10314 10319 10325 10334 10346 10357 10370 10387 10408 10424 10438 10476 10498 10526 10547 10566 10587 10605 10625 10637 10649 10663 10675 10682 10692 10698 10710 10714 10718
10487 10457 10431 10409 10390 10374 10360 10346 10333 10321 10311 10304 10298 10292 10288 10284 10281 10280 10279 10281 10282 10286 10287 10292 10297 10303 10309 10317 10326 10335 10344 10359 10374 10394 10408 10430 10456 10478 10507 10532 10553 10573 10591 10605 10623 10637 10643 10660 10666 10676 10683 10691 10693 10698
10457 10432 10409 10391 10374 10359 10346 10334 10322 10310 10301 10294 10288 10283 10278 10274 10271 10270 10270 10271 10274 10277 10281 10286 10290 10295 10301 10308 10318 10326 10339 10353 10369 10385 10398 10421 10444 10462 10492 10517 10536 10557 10572 10598 10608 10622 10634 10651 10657 10667 10671 10674 10676 10686
10437 10413 10394 10377 10362 10350 10337 10325 10313 10304 10296 10288 10282 10276 10271 10267 10264 10264 10264 10265 10268 10272 10276 10282 10286 10291 10297 10304 10314 10324 10335 10346 10359 10376 10397 10418 10437 10461 10482 10507 10530 10547 10568 10587 10603 10615 10630 10639 10645 10654 10656 10660 10669 10674
10421 10401 10384 10367 10354 10341 10330 10318 10309 10299 10292 10285 10278 10273 10268 10264 10262 10262 10262 10264 10266 10269 10273 10279 10284 10289 10295 10302 10315 10323 10332 10345 10361 10378 10393 10410 10430 10456 10479 10500 10523 10542 10563 10579 10593 10608 10619 10628 10633 10635 10641 10648 10656 10660
10411 10392 10376 10361 10348 10336 10325 10316 10306 10297 10291 10284 10279 10274 10270 10267 10265 10264 10265 10266 10267 10269 10273 10277 10283 10288 10293 10301 10312 10323 10333 10347 10362 10377 10387 10408 10436 10458 10481 10501 10520 10541 10559 10570 10585 10601 10610 10609 10621 10625 10629 10633 10640 10647
10403 10387 10372 10357 10346 10335 10325 10315 10307 10299 10293 10287 10282 10278 10275 10272 10270 10269 10269 10270 10270 10272 10276 10281 10285 10290 10297 10307 10315 10327 10338 10353 10367 10381 10400 10421 10445 10465 10485 10504 10521 10539 10554 10566 10578 10590 10595 10602 10608 10614 10620 10623 10629 10633
10398 10383 10369 10356 10346 10335 10326 10317 10310 10303 10298 10293 10288 10284 10281 10279 10277 10276 10276 10277 10278 10279 10283 10287 10293 10300 10305 10313 10323 10335 10347 10359 10372 10387 10406 10425 10445 10465 10486 10500 10512 10534 10545 10557 10566 10572 10582 10585 10595 10605 10609 10612 10617 10621
10395 10381 10369 10358 10348 10338 10329 10321 10314 10309 10304 10300 10296 10292 10289 10286 10286 10285 10285 10286 10287 10289 10291 10296 10302 10310 10315 10321 10332 10344 10357 10370 10384 10400 10415 10434 10453 10469 10487 10501 10515 10526 10539 10550 10558 10566 10573 10578 10586 10590 10596 10603 10605 10610
10393 10382 10371 10361 10351 10341 10334 10326 10320 10315 10310 10306 10304 10301 10298 10295 10296 10296 10296 10298 10300 10302 10306 10310 10316 10321 10328 10336 10346 10357 10368 10381 10395 10410 10424 10442 10460 10476 10485 10501 10514 10524 10532 10540 10549 10557 10562 10569 10575 10581 10587 10593 10597 10604
10394 10382 10373 10363 10355 10346 10338 10332 10327 10321 10316 10314 10311 10310 10308 10307 10307 10307 10308 10309 10311 10314 10318 10322 10332 10338 10347 10354 10361 10370 10379 10389 10402 10420 10435 10450 10465 10476 10486 10499 10510 10522 10531 10537 10543 10546 10552 10558 10564 10572 10580 10587 10592 10597
10395 10384 10375 10367 10358 10351 10344 10338 10334 10329 10324 10322 10320 10318 10318 10319 10320 10320 10321 10323 10324 10329 10334 10337 10347 10355 10360 10366 10374 10383 10393 10405 10417 10432 10445 10456 10464 10472 10482 10493 10504 10513 10520 10526 10532 10540 10546 10552 10561 10566 10572 10576 10585 10591
10396 10387 10378 10369 10363 10356 10350 10344 10341 10337 10334 10332 10330 10330 10331 10332 10330 10332 10333 10336 10336 10341 10347 10350 10353 10362 10368 10374 10384 10395 10407 10418 10429 10440 10448 10457 10462 10471 10479 10485 10491 10499 10509 10520 10526 10533 10539 10546 10553 10556 10563 10569 10578 10580
10398 10389 10382 10373 10367 10361 10355 10351 10347 10345 10342 10341 10339 10339 10339 10337 10336 10338 10341 10347 10350 10353 10354 10356 10371 10372 10382 10389 10398 10409 10419 10427 10436 10443 10451 10458 10466 10471 10477 10483 10489 10496 10506 10513 10520 10528 10534 10540 10543 10550 10557 10561 10564 10568
10401 10392 10384 10378 10371 10366 10362 10357 10353 10352 10350 10348 10347 10346 10347 10347 10347 10349 10352 10356 10362 10366 10367 10369 10376 10384 10389 10397 10409 10417 10424 10429 10436 10446 10452 10460 10466 10472 10478 10485 10490 10494 10500 10507 10511 10514 10520 10526 10534 10539 10543 10549 10553 10556
10404 10396 10389 10382 10376 10372 10368 10364 10361 10359 10357 10356 10355 10355 10357 10358 10358 10359 10363 10364 10361 10371 10378 10382 10389 10394 10402 10411 10418 10423 10428 10434 10440 10445 10451 10455 10460 10466 10471 10477 10482 10487 10492 10499 10505 10509 10514 10519 10525 10529 10533 10537 10541 10543
10408 10401 10394 10388 10382 10378 10374 10370 10368 10366 10365 10363 10363 10363 10364 10367 10369 10368 10370 10375 10377 10380 10385 10391 10398 10403 10411 10417 10423 10427 10432 10436 10441 10446 10450 10455 10459 10462 10466 10469 10474 10481 10486 10490 10494 10499 10505 10509 10512 10516 10521 10525 10528 10530
10414 10407 10400 10395 10390 10385 10381 10378 10376 10375 10373 10372 10372 10372 10373 10373 10375 10378 10380 10382 10387 10388 10393 10400 10405 10411 10416 10420 10426 10430 10434 10437 10441 10445 10449 10451 10455 10457 10462 10467 10470 10474 10479 10483 10485 10489 10494 10496 10498 10501 10506 10506 10511 10513
10421 10414 10408 10403 10398 10393 10389 10386 10385 10383 10381 10381 10380 10380 10380 10381 10383 10387 10389 10392 10395 10398 10402 10406 10411 10415 10420 10425 10427 10429 10430 10433 10434 10438 10441 10443 10443 10449 10455 10459 10463 10467 10469 10473 10474 10477 10479 10482 10484 10487 10490 10495 10494 10497
10429 10422 10416 10411 10406 10402 10398 10396 10394 10392 10391 10390 10390 10389 10389 10388 10390 10392 10394 10398 10401 10404 10407 10410 10412 10416 10418 10421 10424 10426 10426 10427 10428 10430 10430 10433 10439 10444 10448 10451 10454 10455 10458 10460 10463 10464 10465 10467 10470 10471 10473 10475 10476 10477
10439 10431 10425 10419 10414 10412 10409 10406 10404 10403 10401 10400 10399 10397 10397 10397 10396 10397 10399 10402 10405 10407 10411 10413 10415 10417 10419 10421 10423 10424 10425 10427 10428 10431 10431 10431 10434 10436 10439 10441 10443 10444 10446 10447 10448 10450 10453 10453 10454 10454 10455 10455 10455 10459
10449 10441 10435 10429 10424 10421 10418 10416 10413 10411 10410 10408 10407 10406 10405 10405 10405 10405 10405 10406 10409 10410 10412 10415 10416 10419 10420 10421 10423 10424 10426 10427 10425 10424 10425 10427 10427 10427 10428 10430 10431 10432 10432 10431 10433 10433 10434 10433 10432 10433 10434 10432 10433 10435
10455 10451 10443 10437 10433 10431 10429 10425 10422 10418 10416 10414 10413 10413 10412 10411 10411 10411 10411 10410 10411 10412 10413 10414 10414 10415 10417 10417 10417 10417 10417 10416 10416 10415 10414 10413 10413 10414 10415 10414 10415 10416 10414 10412 10413 10414 10414 10412 10409 10409 10412 10409 10410 10409
10462 10456 10449 10444 10442 10438 10435 10432 10429 10426 10423 10421 10419 10417 10416 10415 10414 10414 10413 10412 10411 10410 10410 10410 10410 10410 10410 10410 10409 10408 10408 10407 10405 10403 10402 10401 10400 10399 10397 10396 10399 10402 10394 10389 10393 10393 10390 10388 10386 10385 10387 10385 10386 10382
10463 10458 10453 10449 10446 10443 10440 10436 10433 10430 10427 10425 10423 10421 10419 10417 10415 10412 10410 10408 10407 10406 10405 10403 10402 10401 10400 10398 10397 10396 10393 10391 10389 10387 10384 10383 10383 10379 10376 10374 10375 10379 10368 10367 10368 10368 10366 10362 10361 10362 10359 10359 10356 10354
10465 10460 10455 10452 10448 10444 10440 10437 10434 10431 10428 10426 10424 10421 10418 10415 10413 10412 10409 10407 10405 10402 10399 10397 10394 10391 10389 10386 10384 10381 10378 10376 10372 10370 10368 10367 10368 10361 10355 10354 10355 10353 10347 10349 10345 10340 10340 10338 10335 10334 10332 10331 10330 10327
10466 10462 10459 10455 10451 10447 10443 10439 10436 10432 10429 10425 10422 10419 10416 10414 10410 10407 10403 10400 10397 10394 10391 10387 10384 10381 10378 10375 10373 10369 10365 10363 10358 10354 10352 10352 10349 10346 10336 10335 10336 10330 10327 10329 10323 10320 10320 10315 10310 10307 10306 10304 10301 10300
10475 10472 10466 10461 10456 10451 10446 10442 10438 10434 10430 10425 10421 10416 10412 10408 10404 10399 10395 10391 10387 10383 10380 10376 10373 10370 10366 10362 10359 10355 10349 10346 10343 10338 10336 10335 10332 10328 10322 10318 10315 10312 10308 10308 10303 10299 10298 10292 10288 10287 10283 10280 10277 10275
10480 10472 10472 10469 10461 10455 10450 10444 10440 10435 10430 10425 10420 10414 10409 10403 10398 10393 10388 10383 10379 10375 10371 10366 10361 10357 10353 10349 10345 10342 10334 10328 10326 10321 10318 10314 10311 10308 10304 10299 10295 10293 10289 10286 10284 10281 10275 10269 10268 10263 10261 10257 10254 10251
10484 10481 10482 10472 10465 10458 10452 10446 10441 10436 10431 10424 10418 10412 10405 10399 10392 10387 10382 10377 10372 10367 10363 10358 10351 10344 10339 10334 10330 10326 10320 10315 10312 10307 10302 10298 10293 10289 10285 10281 10277 10273 10270 10266 10263 10260 10257 10252 10248 10243 10238 10235 10232 10229
10484 10480 10476 10470 10464 10457 10450 10445 10440 10434 10428 10421 10416 10410 10404 10399 10391 10384 10378 10373 10368 10363 10357 10352 10343 10335 10328 10323 10319 10314 10309 10305 10300 10296 10292 10287 10282 10277 10272 10267 10262 10258 10254 10250 10246 10242 10238 10234 10230 10226 10222 10217 10214 10210
10485 10480 10474 10469 10463 10457 10451 10445 10439 10433 10427 10421 10417 10411 10404 10396 10390 10383 10376 10369 10363 10356 10348 10341 10335 10328 10322 10316 10311 10307 10301 10296 10292 10289 10284 10278 10273 10268 10263 10258 10253 10248 10243 10238 10234 10229 10224 10219 10215 10211 10207 10203 10199 10195
10486 10482 10476 10471 10464 10458 10453 10446 10438 10434 10429 10423 10415 10409 10402 10394 10385 10377 10371 10364 10357 10350 10343 10335 10328 10322 10316 10310 10305 10300 10295 10291 10285 10279 10275 10270 10263 10257 10252 10248 10243 10238 10233 10228 10222 10217 10212 10207 10202 10198 10194 10190 10186 10182